Location: Lafig�re
(44.4503°N, 4.0357°E)
Time: 15:49:06
(UTC+00:00)

ATLAS 3B R/B - Pass Details

Date: 24 September 2020
Orbit: 1016 x 1179 km, 63.8° (Epoch: 04 October)

Event Time Altitude Azimuth Distance (km) Brightness Sun altitude
Rises 20:19:51 0° 322° (NW) 3,839 6.6 -28.7°
Reaches altitude 10° 20:22:26 10° 322° (NW) 2,903 5.8 -29.1°
Maximum altitude 20:29:21 85° 235° (SW) 1,108 2.6 -30.1°
Enters shadow 20:29:49 79° 170° (S) 1,126 2.6 -30.2°
